This demonstration page uses our WeatherBlox Daily Observations layout. Learn more.

Left ArrowRight Arrow

53.62937, 11.41316

Hourly Observations for December 5, 2021

Temp ( °F °C ) Dew Point ( °F °C ) Humidity (%) Winds ( mph kmh ) Pressure ( in mb ) Visibility ( mi km ) Precip ( " mm )
12:20 am 00:20 Partly Cloudy 34 1 32 0 93 93 E 6 9 29.47 998 3 4 N/A
12:50 am 00:50 Partly Cloudy 32 0 32 0 100 100 E 6 9 29.47 998 2 3 N/A
1:20 am 01:20 Mostly Clear 32 0 32 0 100 100 E 6 9 29.47 998 1 2 N/A
1:50 am 01:50 Mostly Clear 32 0 32 0 100 100 E 7 11 29.47 998 1 2 N/A
2:20 am 02:20 Mostly Clear 32 0 32 0 100 100 E 6 9 29.47 998 4 6 N/A
2:50 am 02:50 Mostly Cloudy 34 1 32 0 93 93 E 7 11 29.50 999 3 4 N/A
3:20 am 03:20 Partly Cloudy 34 1 32 0 93 93 E 8 13 29.50 999 3 5 N/A
3:50 am 03:50 Partly Cloudy 34 1 32 0 93 93 E 8 13 29.50 999 4 6 N/A
4:20 am 04:20 Mostly Cloudy 34 1 32 0 93 93 E 7 11 29.50 999 30 48 N/A
4:50 am 04:50 Mostly Cloudy 34 1 32 0 93 93 E 6 9 29.50 999 30 48 N/A
5:20 am 05:20 Mostly Cloudy 34 1 32 0 93 93 E 6 9 29.53 1000 4 7 N/A
5:50 am 05:50 Mostly Cloudy 34 1 32 0 93 93 E 7 11 29.53 1000 4 7 N/A
6:20 am 06:20 Mostly Cloudy 34 1 32 0 93 93 E 7 11 29.53 1000 4 7 N/A
6:50 am 06:50 Partly Cloudy 34 1 32 0 93 93 E 7 11 29.56 1001 4 7 N/A
7:20 am 07:20 Mostly Cloudy 34 1 32 0 93 93 E 7 11 29.56 1001 30 48 N/A
7:50 am 07:50 Mostly Cloudy 34 1 32 0 93 93 E 8 13 29.56 1001 30 48 N/A
8:20 am 08:20 Mostly Cloudy 34 1 32 0 93 93 E 7 11 29.59 1002 5 8 N/A
8:50 am 08:50 Cloudy 34 1 32 0 93 93 E 7 11 29.59 1002 6 9 N/A
10:20 am 10:20 Mostly Cloudy 34 1 32 0 93 93 E 6 9 29.65 1004 4 7 N/A
10:50 am 10:50 Mostly Cloudy with Drizzle 34 1 32 0 93 93 E 6 9 29.65 1004 5 8 N/A
11:20 am 11:20 Mostly Cloudy with Drizzle 34 1 32 0 93 93 ENE 7 11 29.68 1005 4 7 N/A
11:50 am 11:50 Mostly Cloudy with Light Snow 34 1 32 0 93 93 E 6 9 29.68 1005 5 8 N/A
12:20 pm 12:20 Mostly Cloudy with Light Snow 34 1 32 0 93 93 ENE 7 11 29.68 1005 4 6 N/A
12:50 pm 12:50 Mostly Cloudy with Light Snow 34 1 32 0 93 93 ENE 8 13 29.68 1005 3 5 N/A
1:20 pm 13:20 Mostly Cloudy with Light Snow 34 1 32 0 93 93 ENE 8 13 29.71 1006 2 3 N/A
1:50 pm 13:50 Mostly Cloudy with Light Snow 34 1 32 0 93 93 ENE 7 11 29.71 1006 2 3 N/A
2:20 pm 14:20 Mostly Cloudy with Light Rain/Snow 34 1 32 0 93 93 ENE 5 7 29.71 1006 3 5 N/A
2:50 pm 14:50 Mostly Cloudy with Light Rain/Snow 34 1 32 0 93 93 NE 6 9 29.71 1006 2 3 N/A
3:20 pm 15:20 Mostly Cloudy with Light Snow 34 1 32 0 93 93 NE 5 7 29.74 1007 2 3 N/A
3:50 pm 15:50 Partly Cloudy with Isolated Snow Showers 32 0 32 0 100 100 NE 3 6 29.74 1007 2 3 N/A
4:20 pm 16:20 Partly Cloudy with Isolated Snow Showers 32 0 32 0 100 100 NE 2 4 29.77 1008 2 3 N/A
4:50 pm 16:50 Partly Cloudy with Isolated Snow Showers 32 0 32 0 100 100 NE 3 6 29.77 1008 2 4 N/A
5:20 pm 17:20 Partly Cloudy with Scattered Snow Showers 34 1 32 0 93 93 E 6 9 29.80 1009 2 4 N/A
5:50 pm 17:50 Partly Cloudy with Isolated Snow Showers 32 0 32 0 100 100 NE 5 7 29.80 1009 2 4 N/A
6:20 pm 18:20 Partly Cloudy with Scattered Snow Showers 32 0 32 0 100 100 NNE 3 6 29.80 1009 2 3 N/A
6:50 pm 18:50 Partly Cloudy with Isolated Snow Showers 34 1 32 0 93 93 ENE 7 11 29.83 1010 2 4 N/A
7:20 pm 19:20 Partly Cloudy with Light Rain/Snow 32 0 32 0 100 100 E 3 6 29.83 1010 3 5 N/A
7:50 pm 19:50 Mostly Cloudy with Light Rain 34 1 32 0 93 93 NE 3 6 29.83 1010 6 9 N/A
8:20 pm 20:20 Mostly Cloudy with Light Rain 34 1 32 0 93 93 ENE 3 6 29.83 1010 6 9 N/A
9:20 pm 21:20 Mostly Cloudy 32 0 32 0 100 100 VRB 1 2 29.86 1011 2 4 N/A
9:50 pm 21:50 Mostly Cloudy 32 0 32 0 100 100 Calm 29.86 1011 3 5 N/A
10:20 pm 22:20 Mostly Cloudy 32 0 32 0 100 100 ENE 2 4 29.89 1012 30 48 N/A
10:50 pm 22:50 Mostly Cloudy 34 1 32 0 93 93 E 5 7 29.89 1012 30 48 N/A
11:50 pm 23:50 Mostly Cloudy 34 1 32 0 93 93 VRB 2 4 29.92 1013 30 48 N/A

Powered by AerisWeather